Location: *
(45.9500°N, 9.0833°E)
Time: 20:51:38
(UTC+00:00)

Tiros 1 - Pass Details

Date: 18 June 2021
Orbit: 630 x 664 km, 48.4° (Epoch: 05 August)

Event Time Altitude Azimuth Distance (km) Brightness Sun altitude
Rises 12:02:50 0° 263° (W) 2,930 10.7 66.2°
Reaches altitude 10° 12:05:10 10° 266° (W) 2,027 10.0 66.0°
Maximum altitude 12:09:50 71° 350° (N) 685 8.2 65.7°
Drops below altitude 10° 12:14:33 10° 75° (ENE) 2,052 9.7 65.3°
Sets 12:16:55 0° 77° (ENE) 2,969 10.4 65.1°
